Location: Jackson
(35.6140°N, 88.8140°W)
Time: 12:08:26
(UTC-05:00)

ISS - Visible Passes

Search period start: 24 March 2019 00:00
Search period end: 03 April 2019 00:00
Orbit: 408 x 411 km, 51.6° (Epoch: 24 March)

Date Brightness Start Highest point End Pass type
(mag) Time Alt. Az. Time Alt. Az. Time Alt. Az.
24 Mar -2.1 19:39:40 10° WSW 19:42:42 33° NW 19:45:45 10° NNE visible
25 Mar -0.7 20:28:09 10° NW 20:29:07 11° NNW 20:30:06 10° N visible
26 Mar -1.0 19:36:03 10° WNW 19:38:12 16° NNW 19:40:21 10° NNE visible
02 Apr -0.5 21:47:12 10° NNW 21:47:22 11° NNW 21:47:22 11° NNW visible
